• în România
  • Lista ţărilor
  • Pe 7 zile
  • Temperatura apei
  • Hartă satelitară
  • Meteo pe hartă
  • Widget-uri
  • user-avatar
    Intrare

    Meteo pe oră la Repnoe

    Astăzi, 26 Septembrie, Miercuri

    Timp Temperatura Precipitaţii Vânt Presiune Umiditate
    00:00 +7°C° 0 mm 3 m/s 747 mmHg 84%
    01:00 +7°C° 0 mm 3 m/s 747 mmHg 85%
    02:00 +5°C° 0 mm 3 m/s 748 mmHg 86%
    03:00 +5°C° 0 mm 3 m/s 748 mmHg 87%
    04:00 +5°C° 0 mm 3 m/s 748 mmHg 87%
    05:00 +4°C° 0 mm 3 m/s 749 mmHg 87%
    06:00 +4°C° 0 mm 3 m/s 749 mmHg 88%
    07:00 +7°C° 0 mm 3 m/s 750 mmHg 80%
    08:00 +8°C° 0 mm 3 m/s 750 mmHg 72%
    09:00 +10°C° 0 mm 4 m/s 751 mmHg 64%
    10:00 +10°C° 0 mm 4 m/s 751 mmHg 61%
    11:00 +11°C° 0 mm 4 m/s 751 mmHg 57%
    12:00 +12°C° 0 mm 4 m/s 752 mmHg 53%
    13:00 +12°C° 0 mm 4 m/s 752 mmHg 53%
    14:00 +12°C° 0 mm 4 m/s 752 mmHg 52%
    15:00 +12°C° 0 mm 4 m/s 752 mmHg 52%
    16:00 +11°C° 0 mm 3 m/s 753 mmHg 56%
    17:00 +10°C° 0 mm 3 m/s 753 mmHg 60%
    18:00 +9°C° 0 mm 2 m/s 753 mmHg 64%
    19:00 +8°C° 0 mm 2 m/s 753 mmHg 66%
    20:00 +8°C° 0 mm 2 m/s 753 mmHg 68%
    21:00 +7°C° 0 mm 2 m/s 753 mmHg 70%
    22:00 +7°C° 0 mm 2 m/s 753 mmHg 71%
    23:00 +5°C° 0 mm 3 m/s 753 mmHg 72%

    Mâine, 27 Septembrie, Joi

    Timp Temperatura Precipitaţii Vânt Presiune Umiditate
    00:00 +5°C° 0 mm 3 m/s 753 mmHg 73%
    01:00 +5°C° 0 mm 3 m/s 753 mmHg 73%
    02:00 +4°C° 0 mm 3 m/s 752 mmHg 74%
    03:00 +4°C° 0 mm 4 m/s 752 mmHg 74%
    04:00 +4°C° 0 mm 4 m/s 751 mmHg 72%
    05:00 +3°C° 0 mm 5 m/s 751 mmHg 70%
    06:00 +4°C° 0 mm 6 m/s 750 mmHg 69%
    07:00 +4°C° 0 mm 7 m/s 750 mmHg 64%
    08:00 +5°C° 0 mm 8 m/s 749 mmHg 60%
    09:00 +6°C° 0 mm 9 m/s 749 mmHg 56%
    10:00 +6°C° 0.2 mm 9 m/s 748 mmHg 55%
    11:00 +7°C° 0.2 mm 10 m/s 747 mmHg 55%
    12:00 +7°C° 0.2 mm 10 m/s 747 mmHg 54%
    13:00 +7°C° 0.3 mm 10 m/s 746 mmHg 57%
    14:00 +7°C° 0.3 mm 10 m/s 746 mmHg 60%
    15:00 +7°C° 0.3 mm 9 m/s 746 mmHg 63%
    16:00 +7°C° 0.1 mm 9 m/s 745 mmHg 67%
    17:00 +7°C° 0.1 mm 8 m/s 745 mmHg 71%
    18:00 +7°C° 0.1 mm 8 m/s 745 mmHg 74%
    19:00 +8°C° 0 mm 7 m/s 745 mmHg 76%
    20:00 +8°C° 0 mm 7 m/s 746 mmHg 78%
    21:00 +8°C° 0 mm 6 m/s 746 mmHg 80%
    22:00 +8°C° 0 mm 6 m/s 746 mmHg 83%
    23:00 +7°C° 0 mm 6 m/s 746 mmHg 85%

    Poimâine, 28 Septembrie, Vineri

    Timp Temperatura Precipitaţii Vânt Presiune Umiditate
    00:00 +7°C° 0 mm 6 m/s 746 mmHg 88%
    01:00 +7°C° 0 mm 5 m/s 746 mmHg 90%
    02:00 +7°C° 0 mm 5 m/s 747 mmHg 92%
    03:00 +6°C° 0 mm 5 m/s 747 mmHg 94%
    04:00 +7°C° 0 mm 5 m/s 747 mmHg 94%
    05:00 +7°C° 0 mm 5 m/s 747 mmHg 93%
    06:00 +7°C° 0 mm 5 m/s 747 mmHg 93%
    07:00 +8°C° 0 mm 5 m/s 747 mmHg 88%
    08:00 +9°C° 0 mm 5 m/s 747 mmHg 83%
    09:00 +10°C° 0 mm 6 m/s 747 mmHg 78%
    10:00 +11°C° 0 mm 7 m/s 746 mmHg 70%
    11:00 +14°C° 0 mm 7 m/s 746 mmHg 61%
    12:00 +15°C° 0 mm 8 m/s 746 mmHg 53%
    13:00 +16°C° 0 mm 8 m/s 745 mmHg 53%
    14:00 +16°C° 0 mm 8 m/s 745 mmHg 53%
    15:00 +17°C° 0 mm 8 m/s 744 mmHg 53%
    16:00 +16°C° 0 mm 8 m/s 744 mmHg 57%
    17:00 +15°C° 0 mm 7 m/s 744 mmHg 60%
    18:00 +14°C° 0 mm 6 m/s 743 mmHg 64%
    19:00 +14°C° 0 mm 6 m/s 743 mmHg 66%
    20:00 +14°C° 0 mm 6 m/s 743 mmHg 67%
    21:00 +13°C° 0 mm 6 m/s 743 mmHg 68%
    22:00 +13°C° 0 mm 6 m/s 743 mmHg 71%
    23:00 +13°C° 0 mm 6 m/s 743 mmHg 75%

    29 Septembrie, Sâmbătă

    Timp Temperatura Precipitaţii Vânt Presiune Umiditate
    00:00 +13°C° 0 mm 6 m/s 744 mmHg 78%
    01:00 +13°C° 0 mm 5 m/s 744 mmHg 79%
    02:00 +12°C° 0 mm 4 m/s 745 mmHg 80%
    03:00 +12°C° 0 mm 3 m/s 745 mmHg 81%
    04:00 +11°C° 0 mm 3 m/s 746 mmHg 81%
    05:00 +10°C° 0 mm 3 m/s 746 mmHg 82%
    06:00 +9°C° 0 mm 3 m/s 746 mmHg 82%
    07:00 +10°C° 0 mm 3 m/s 747 mmHg 76%
    08:00 +10°C° 0 mm 3 m/s 747 mmHg 70%
    09:00 +10°C° 0 mm 3 m/s 748 mmHg 65%
    10:00 +11°C° 0 mm 3 m/s 748 mmHg 59%
    11:00 +12°C° 0 mm 3 m/s 748 mmHg 53%
    12:00 +13°C° 0 mm 3 m/s 748 mmHg 47%
    13:00 +13°C° 0 mm 3 m/s 748 mmHg 45%
    14:00 +14°C° 0 mm 3 m/s 748 mmHg 43%
    15:00 +14°C° 0 mm 3 m/s 748 mmHg 41%
    16:00 +13°C° 0 mm 3 m/s 749 mmHg 43%
    17:00 +12°C° 0 mm 3 m/s 749 mmHg 44%
    18:00 +11°C° 0 mm 3 m/s 749 mmHg 46%
    19:00 +11°C° 0.1 mm 3 m/s 749 mmHg 47%
    20:00 +10°C° 0.1 mm 3 m/s 750 mmHg 49%
    21:00 +9°C° 0.1 mm 3 m/s 750 mmHg 51%
    22:00 +9°C° 0.2 mm 3 m/s 750 mmHg 54%
    23:00 +9°C° 0.2 mm 3 m/s 750 mmHg 57%

    30 Septembrie, Duminică

    Timp Temperatura Precipitaţii Vânt Presiune Umiditate
    00:00 +8°C° 0.2 mm 3 m/s 751 mmHg 59%
    01:00 +8°C° 0.1 mm 3 m/s 751 mmHg 61%
    02:00 +8°C° 0.1 mm 3 m/s 751 mmHg 63%
    03:00 +8°C° 0.1 mm 3 m/s 752 mmHg 64%
    04:00 +7°C° 0.1 mm 3 m/s 752 mmHg 66%
    05:00 +7°C° 0.1 mm 3 m/s 752 mmHg 67%
    06:00 +7°C° 0.1 mm 3 m/s 752 mmHg 69%
    07:00 +7°C° 0 mm 3 m/s 753 mmHg 64%
    08:00 +8°C° 0 mm 3 m/s 753 mmHg 60%
    09:00 +8°C° 0 mm 4 m/s 753 mmHg 55%
    10:00 +8°C° 0 mm 4 m/s 754 mmHg 50%
    11:00 +10°C° 0 mm 4 m/s 754 mmHg 45%
    12:00 +11°C° 0 mm 4 m/s 754 mmHg 39%
    13:00 +11°C° 0 mm 4 m/s 754 mmHg 38%
    14:00 +11°C° 0 mm 4 m/s 754 mmHg 37%
    15:00 +12°C° 0 mm 4 m/s 753 mmHg 36%
    16:00 +10°C° 0 mm 3 m/s 754 mmHg 40%
    17:00 +9°C° 0 mm 2 m/s 754 mmHg 44%
    18:00 +8°C° 0 mm 2 m/s 754 mmHg 48%
    19:00 +7°C° 0 mm 2 m/s 754 mmHg 50%
    20:00 +8°C° 0 mm 1 m/s 754 mmHg 52%
    21:00 +7°C° 0 mm 1 m/s 755 mmHg 54%
    22:00 +7°C° 0 mm 1 m/s 755 mmHg 55%
    23:00 +7°C° 0 mm 1 m/s 755 mmHg 56%

    1 Octombrie, Luni

    Timp Temperatura Precipitaţii Vânt Presiune Umiditate
    00:00 +6°C° 0 mm 1 m/s 755 mmHg 57%
    01:00 +6°C° 0 mm 1 m/s 755 mmHg 57%
    02:00 +6°C° 0 mm 1 m/s 755 mmHg 58%
    03:00 +6°C° 0 mm 1 m/s 755 mmHg 58%
    04:00 +4°C° 0 mm 2 m/s 755 mmHg 59%
    05:00 +4°C° 0 mm 2 m/s 755 mmHg 59%
    06:00 +4°C° 0 mm 2 m/s 755 mmHg 60%
    07:00 +5°C° 0 mm 2 m/s 755 mmHg 56%
    08:00 +7°C° 0 mm 2 m/s 755 mmHg 52%
    09:00 +8°C° 0 mm 3 m/s 755 mmHg 48%
    10:00 +10°C° 0 mm 3 m/s 755 mmHg 45%
    11:00 +11°C° 0 mm 3 m/s 755 mmHg 42%
    12:00 +12°C° 0 mm 3 m/s 755 mmHg 39%
    13:00 +13°C° 0 mm 3 m/s 755 mmHg 38%
    14:00 +13°C° 0 mm 3 m/s 754 mmHg 37%
    15:00 +13°C° 0 mm 3 m/s 754 mmHg 36%
    16:00 +13°C° 0 mm 2 m/s 754 mmHg 39%
    17:00 +12°C° 0 mm 2 m/s 754 mmHg 43%
    18:00 +10°C° 0 mm 2 m/s 754 mmHg 47%
    19:00 +9°C° 0 mm 2 m/s 754 mmHg 48%
    20:00 +8°C° 0 mm 2 m/s 754 mmHg 49%
    21:00 +8°C° 0 mm 2 m/s 754 mmHg 51%
    22:00 +7°C° 0 mm 2 m/s 754 mmHg 52%
    23:00 +7°C° 0 mm 2 m/s 754 mmHg 53%
    Arată mai mult